Regional Weather Roundup
Issued by NWS State College, PA

Home | Current Version | Previous Version | Graphics & Text | Print | Product List | Glossary Off
Versions: 1 2 3 4 5 6 7 8 9 10 11 12 13 14 15 16 17 18 19 20 21 22 23 24 25 26 27 28 29 30 31 32 33 34 35 36 37 38 39 40 41 42 43 44 45 46 47 48 49 50

000
ASUS41 KCTP 231403
RWRCTP

REGIONAL WEATHER ROUNDUP
NATIONAL WEATHER SERVICE STATE COLLEGE PA
1000 AM EDT MON APR 23 2018

Note: "fair" indicates few or no clouds below 12,000 feet with no
significant weather and/or obstructions to visibility.

* = STATION THAT DOES NOT REPORT PRECIPITATION /E.G. RAIN...SNOW...ETC/
    THUNDER OR FOG.

PAZ002>004-007>009-013>016-020>023-029>032-231500-
WESTERN PENNSYLVANIA

CITY           SKY/WX    TMP DP  RH WIND       PRES   REMARKS
ERIE           FAIR      62  36  37 S18G25    30.31S
MEADVILLE      FAIR      56  34  43 SE8       30.32F
FRANKLIN*      FAIR      57  36  45 SE12      30.34F
NEW CASTLE     FAIR      61  40  45 SE9       30.32S
BEAVER COUNTY  SUNNY     57  39  51 SE7       30.30F
BUTLER*        FAIR      57  40  52 E9        30.33S
PITTSBURGH INT PTSUNNY   60  41  49 SE8       30.29F
PITTSBURGH     FAIR      58  41  53 E8        30.30S
INDIANA*       SUNNY     59  37  44 SE7       30.38S
LATROBE        SUNNY     59  39  47 E12       30.33F
WASHINGTON CO* NOT AVBL
$$

PAZ004>006-010>012-017>019-024>028-033>037-041-042-045-046-049>053-231500-
CENTRAL PENNSYLVANIA

CITY           SKY/WX    TMP DP  RH WIND       PRES   REMARKS
BRADFORD       FAIR      56  26  31 SE13      30.38F
DUBOIS         FAIR      56  34  43 SE12      30.36S
CLEARFIELD     FAIR      54  29  38 NE6       30.39F
JOHNSTOWN      FAIR      53  35  50 SE12      30.35R
ALTOONA        FAIR      56  35  45 SE5       30.39S
STATE COLLEGE  SUNNY     54  28  37 CALM      30.41F
WILLIAMSPORT   FAIR      52  27  38 SE5       30.44F
SELINSGROVE    FAIR      54  33  45 CALM      30.45F
FT INDIANTOWN  MOSUNNY   58  31  35 E8        30.44F
CAPITAL CITY   FAIR      59  40  49 E7        30.44S
HARRISBURG     FAIR      58  39  49 CALM      30.43F
YORK           FAIR      57  38  48 CALM      30.43F
$$

PAZ038>040-043-044-047-048-054-055-060>062-067>071-231500-
EASTERN PENNSYLVANIA

CITY           SKY/WX    TMP DP  RH WIND       PRES   REMARKS
SCRANTON       FAIR      56  26  31 CALM      30.46S
MOUNT POCONO   FAIR      52  17  25 SE7       30.46R
ALLENTOWN      FAIR      57  25  29 VRB5      30.47S
QUAKERTOWN*    SUNNY     59  25  27 VRB6      30.46F
READING        FAIR      58  37  45 CALM      30.45S
LANCASTER      FAIR      58  42  55 SE6       30.44F
COATESVILLE    FAIR      59  32  36 E7        30.46S
POTTSTOWN      FAIR      56  32  40 VRB3      30.47F
BLUE BELL      FAIR      57  34  41 NE5       30.47F
DOYLESTOWN     FAIR      58  30  34 VRB3      30.46S
WILLOW GROVE   NOT AVBL
NORTH PHILA    FAIR      61  35  37 E7        30.48F
PHILADELPHIA   FAIR      59  40  49 E8        30.47F
$$




USA.gov is the U.S. government's official web portal to all federal, state and local government web resources and services.